Location: Wellington
(41.3000°S, 174.7830°E)
Time: 22:45:09
(UTC+13:00)

USA 238 DEB - Pass Details

Date: 24 January 2019
Orbit: 1045 x 1168 km, 63.4° (Epoch: 23 January)

Event Time Altitude Azimuth Distance (km) Brightness Sun altitude
Rises 22:13:59 0° 355° (N) 4,030 6.4 -14.0°
Reaches altitude 10° 22:16:55 10° 3° (N) 3,071 5.7 -14.4°
Maximum altitude 22:23:31 37° 67° (ENE) 1,721 4.3 -15.3°
Drops below altitude 10° 22:30:04 10° 131° (SE) 3,047 6.0 -16.1°
Sets 22:32:57 0° 138° (SE) 3,995 6.8 -16.5°
